sat.trackr.live / text

‹ back to catalog

STARLINK-36855

NORAD 68121 · 2026-044W

PAYLOAD ACTIVE UNKNOWN

§ Identity

Operator
Country
US
Launch date
2026-03-08
Launch site
AFWTR
Launch vehicle
Mass (kg)
RCS (m²)

Purposes: comms

External: N2YO · Heavens-Above · Gunter

§ Orbital elements

Epoch: 2026-09-20T03:02:16.500768Z

Period
93.91 min
Inclination
97.2886°
Eccentricity
0.0003188
Mean motion
15.33422349 rev/d
Perigee alt
463.4 km
Apogee alt
467.8 km
Semi-major
6,843.7 km
B*
9.8828e-4
RAAN
222.1313°
Arg perigee
90.7552°
Mean anomaly
269.4056°
Rev number
3,138

§ Raw data

STARLINK-368551 68121U 26044W   26263.12657987  .00031946  00000+0  98828-3 0  99982 68121  97.2886 222.1313 0003188  90.7552 269.4056 15.33422349 31385

JSON: /api/v1/satellites/68121 · /tle

For live sub-satellite position, see the globe view (requires WebGL).

§ Visibility from observer

Set your observer location to see the next 7 days of passes ≥ 10°. The values pass through the URL so the page stays shareable.

No JS? Fill the form by hand. The geolocation button needs JavaScript.